ELECTRON R/B, 65972

Orbit data source: Space-Track

ELECTRON R/B, 65972 is space debris in LEO originally from an American launch on Tue, 14 Oct 2025 UTC launched from the Rocket Lab Launch Complex (RLLC). Debris objects in space refer to the collection of defunct objects orbiting the Earth. Examples of debris include non-operational satellites, rocket bodies, and fragments generated from explosions, collisions, or faulty payload assembly.

Loading next visibility...
Identifier
65972, 2025-229B
Orbit
LEO
Country
Flag of USUS
Related business
None
Manufacturer
Unknown
Mission
Operational spacecraft
Bus & Motor
Unknown
Mass
Unknown
Launch date (UTC)
2025-10-14 (4 days ago)
Launch vehicle
Unknown
Launch site
Rocket Lab Launch Complex (RLLC)
Object type
Payload
Rocket body
Debris
Shape & HBR
Unknown
Radar Cross Section
RCS unknown

Expand to show TLE details & history
Last TLE update: 1 day ago

TLE from 1 day ago
0 ELECTRON R/B
1 65972U 25229B   25289.74404435  .02940838  70625-5  10507-2 0  9990
2 65972  41.9266 193.3565 0256487 248.7725 108.5556 15.79191384   321
Epoch: 2025-10-16T17:51Z
TLE epoch observation values (Epoch: 2025-10-16T17:51:25.431Z)
Latitude
-0°
Longitude
-99.99884°
Altitude
391.06 km
Speed
7.644 km/s
True Right ascension
12h 53m 25s
True Declination
0° 00' 00"
Sunlit
Object was in daylight at epoch
Visualization orbit readout
Latitude
Unknown
Longitude
Unknown
Altitude
Unknown
Speed
Unknown
Apparent Right ascension
Unknown
Apparent Declination
Unknown
Sunlit
N/A
Visualization observer readout
Local Sidereal Time
21:26:17
Azimuth
Unknown
Elevation
Unknown
Doppler factor
Unknown
Orbital elements
Apogee altitude
507.086 km
Perigee altitude
162.724 km
Semi-major axis
6,713.042 km
Eccentricity
0.02565
Inclination
41.9266°
RAAN
193.3565°
Arg. of periapsis
248.7725°
True anomaly
111.31272°
Mean anomaly
108.5556°
Eccentric anomaly
109.93709°
Mean motion
3.94606 °/min
Orbital period
91.23 mins
BSTAR
0.0010507
Loading maneuver chart data...
Computing Atmospheric mass density...
Loading historical data...
Loading historical data...
Loading historical data...
Loading historical data...
Loading historical data...
Loading historical data...
Loading historical data...
Other satellites on launch #229 in the year 2025 (2025-10-14 UTC)

Documentation

Showing up to 5 results
|